Regional Weather Roundup
Issued by NWS

Home | Current Version | Previous Version | Text Only | Print | Product List | Glossary Off
Versions: 1 2 3 4 5 6 7 8 9 10 11 12 13 14 15 16 17 18 19 20 21 22 23 24 25 26 27 28 29 30 31 32 33 34 35 36 37 38 39 40 41 42 43 44 45 46 47 48 49 50

000
ASUS43 KMKX 220611
RWRWI

WISCONSIN REGIONAL WEATHER ROUNDUP
NATIONAL WEATHER SERVICE MILWAUKEE/SULLIVAN WI
100 AM CDT FRI SEP 22 2017

NOTE: "FAIR" INDICATES FEW OR NO CLOUDS BELOW 12,000 FEET WITH NO
SIGNIFICANT WEATHER AND/OR OBSTRUCTIONS TO VISIBILITY.

WIZ001-002-006>008-014>016-023>028-220700-
NORTHWEST WISCONSIN

CITY           SKY/WX    TMP DP  RH WIND       PRES   REMARKS
SUPERIOR ARPT  CLEAR     59  58  94 NE7       29.87F
6HR MIN TEMP:  59; 6HR MAX TEMP:  60;

ASHLAND        CLEAR     56  55  97 W5        29.90S
6HR MIN TEMP:  55; 6HR MAX TEMP:  61;

HAYWARD        CLEAR     71  64  78 S8        29.91F
6HR MIN TEMP:  71; 6HR MAX TEMP:  73;

SIREN          PTCLDY    73  64  74 S7        29.87S
6HR MIN TEMP:  71; 6HR MAX TEMP:  74;

CUMBERLAND     PTCLDY    68  63  83 SE6       29.90F
RICE LAKE      PTCLDY    70  64  81 SE8       29.91F
6HR MIN TEMP:  70; 6HR MAX TEMP:  73;

CHETEK         PTCLDY    69  65  87 CALM      29.92S
6HR MIN TEMP:  69; 6HR MAX TEMP:  73;

LADYSMITH      CLEAR     72  64  77 SE6       29.96S
6HR MIN TEMP:  69; 6HR MAX TEMP:  73;

EAU CLAIRE     PTCLDY    74  65  73 S9        29.91S
6HR MIN TEMP:  71; 6HR MAX TEMP:  78;

MENOMONIE      CLEAR     70  65  82 SE8       29.90F
6HR MIN TEMP:  70; 6HR MAX TEMP:  77;

NEW RICHMOND   CLEAR     74  64  72 S13       29.87F
6HR MIN TEMP:  73; 6HR MAX TEMP:  76;

OSCEOLA        CLEAR     74  65  74 SE10      29.88S
6HR MIN TEMP:  73; 6HR MAX TEMP:  77;

$$

WIZ003>005-009-010-017-018-220700-
NORTH CENTRAL WISCONSIN

CITY           SKY/WX    TMP DP  RH WIND       PRES   REMARKS
MANITOWISH WTR CLEAR     66  66 100 SE6       29.97F
6HR MIN TEMP:  66; 6HR MAX TEMP:  72;

ARBOR VITAE    CLEAR     67  65  93 SE5       29.99S
6HR MIN TEMP:  67; 6HR MAX TEMP:  73;

WOODRUFF       CLEAR     67  65  93 SE5       29.99S
6HR MIN TEMP:  67; 6HR MAX TEMP:  73;

RHINELANDER    CLEAR     68  66  93 SE3       30.01R
6HR MIN TEMP:  65; 6HR MAX TEMP:  70;

EAGLE RIVER    CLEAR     66  66  99 CALM      30.01R FOG
6HR MIN TEMP:  66; 6HR MAX TEMP:  72;

LAND O LAKES   CLEAR     67  65  94 S3        30.02S
6HR MIN TEMP:  67; 6HR MAX TEMP:  73;

PHILLIPS       CLEAR     69  66  89 S7        29.96F
6HR MIN TEMP:  68; 6HR MAX TEMP:  71;

TOMAHAWK       PTCLDY    67  64  90 SE3       30.00R
6HR MIN TEMP:  66; 6HR MAX TEMP:  69;

MEDFORD        PTCLDY    65  63  93 SE6       29.98S
6HR MIN TEMP:  65; 6HR MAX TEMP:  71;

MERRILL        PTCLDY    67  66  97 CALM      30.00S
6HR MIN TEMP:  67; 6HR MAX TEMP:  72;

$$

WIZ029-030-035-036-043>047-220700-
CENTRAL WISCONSIN

CITY           SKY/WX    TMP DP  RH WIND       PRES   REMARKS
WAUSAU         PTCLDY    66  64  93 E5        29.98R
6HR MIN TEMP:  66; 6HR MAX TEMP:  74;

MOSINEE        CLEAR     68  64  88 E6        30.00S
MARSHFIELD     CLEAR     67  63  87 S7        29.98R
6HR MIN TEMP:  67; 6HR MAX TEMP:  75;

STEVENS POINT  CLEAR     67  66  96 SE3       30.00S
6HR MIN TEMP:  67; 6HR MAX TEMP:  71;

WAUPACA        CLEAR     67  66  97 CALM      30.00S
6HR MIN TEMP:  67; 6HR MAX TEMP:  75;

WAUTOMA        CLEAR     65  64  97 CALM      30.00
6HR MIN TEMP:  65; 6HR MAX TEMP:  75;

WISC RAPIDS    CLEAR     73  66  78 S6        29.99R
6HR MIN TEMP:  70; 6HR MAX TEMP:  75;

CAMP DOUGLAS   CLEAR     64  64 100 CALM      29.97R
6HR MIN TEMP:  64; 6HR MAX TEMP:  74;

$$

WIZ011>013-019>022-031-037>040-048>050-220700-
NORTHEAST WISCONSIN

CITY           SKY/WX    TMP DP  RH WIND       PRES   REMARKS
ANTIGO         CLEAR     65  65 100 S6        30.02S FOG
6HR MIN TEMP:  65; 6HR MAX TEMP:  68;

SHAWANO        FOG       67  65  93 CALM      30.00S VSB 1/2
6HR MIN TEMP:  67; 6HR MAX TEMP:  74;

OCONTO         MOCLDY    62  62 100 CALM      30.00F VSB 1
6HR MIN TEMP:  61; 6HR MAX TEMP:  69;

STURGEON BAY   PTCLDY    67  66  97 S8        30.03S
6HR MIN TEMP:  64; 6HR MAX TEMP:  67;

GREEN BAY      CLEAR     65  65 100 CALM      30.00S
6HR MIN TEMP:  65; 6HR MAX TEMP:  71;

MANITOWOC      CLEAR     66  64  94 CALM      30.02S FOG
6HR MIN TEMP:  63; 6HR MAX TEMP:  66;

APPLETON       CLEAR     68  64  88 SE5       29.99S
CLINTONVILLE   FOG       64  64 100 CALM      30.00S VSB<1/4
OSHKOSH        CLEAR     68  66  93 S6        29.99S
6HR MIN TEMP:  68; 6HR MAX TEMP:  78;

$$

WIZ032>034-041-042-053>061-220700-
SOUTHWEST WISCONSIN

CITY           SKY/WX    TMP DP  RH WIND       PRES   REMARKS
LA CROSSE      NOT AVBL
SPARTA         CLEAR     75  67  75 S6        29.95S
6HR MIN TEMP:  69; 6HR MAX TEMP:  77;

VIROQUA        CLEAR     71  68  91 CALM      29.98R
6HR MIN TEMP:  71; 6HR MAX TEMP:  77;

BOSCOBEL       CLEAR     68  66  93 CALM      29.97R
6HR MIN TEMP:  68; 6HR MAX TEMP:  84;

PRAIRIE DU CHI CLEAR     78  66  66 SE8       29.94S HX  80
6HR MIN TEMP:  76; 6HR MAX TEMP:  82;

PLATTEVILLE    CLEAR     73  70  92 S8        30.00S
6HR MIN TEMP:  72; 6HR MAX TEMP:  79;

$$

WIZ056-057-062-063-064-067-068-220700-
SOUTH CENTRAL WISCONSIN

CITY           SKY/WX    TMP DP  RH WIND       PRES   REMARKS
REEDSBURG      PTCLDY    73  67  81 S6        29.98S
6HR MIN TEMP:  70; 6HR MAX TEMP:  78;

BARABOO/DELLS  CLEAR     74  64  72 S9        29.99S
6HR MIN TEMP:  73; 6HR MAX TEMP:  78;

LONE ROCK      CLEAR     69  66  90 E6        29.98R
6HR MIN TEMP:  69; 6HR MAX TEMP:  80;

MINERAL POINT  CLEAR     72  70  94 SE7       30.01R
MADISON        PTCLDY    73  66  78 S6        30.00R
6HR MIN TEMP:  73; 6HR MAX TEMP:  82;

MIDDLETON      CLEAR     66  66 100 CALM      30.01S
6HR MIN TEMP:  66; 6HR MAX TEMP:  82;

WATERTOWN      CLEAR     70  70 100 SE3       30.01S
6HR MIN TEMP:  70; 6HR MAX TEMP:  77;

MONROE         CLEAR     72  64  78 S7        30.01R
JANESVILLE     CLEAR     72  72 100 SE3       30.00S
$$

WIZ051-052-058>065-066-070>072-220700-
SOUTHEAST WISCONSIN

CITY           SKY/WX    TMP DP  RH WIND       PRES   REMARKS
MILWAUKEE      PTCLDY    70  68  93 SE5       30.01S FOG
6HR MIN TEMP:  70; 6HR MAX TEMP:  76;

WAUKESHA       CLEAR     66  63  88 CALM      30.03S
MILWAUKEE/TIMM CLEAR     66  63  88 CALM      30.03R FOG
RACINE         CLEAR     73  71  93 S5        30.03S
6HR MIN TEMP:  71; 6HR MAX TEMP:  75;

BURLINGTON     CLEAR     65  65 100 CALM      30.02S
6HR MIN TEMP:  64; 6HR MAX TEMP:  79;

KENOSHA        CLEAR     72  68  87 S5        30.02S
6HR MIN TEMP:  70; 6HR MAX TEMP:  76;

FOND DU LAC    CLEAR     70  65  84 S5        30.00S
6HR MIN TEMP:  68; 6HR MAX TEMP:  78;

SHEBOYGAN      FOG       65  65 100 SW3       30.02R VSB 1/2
6HR MIN TEMP:  62; 6HR MAX TEMP:  72;

WEST BEND        N/A     64  64 100 CALM      30.03R FOG
JUNEAU         CLEAR     69  66  90 SE8       30.02S
6HR MIN TEMP:  69; 6HR MAX TEMP:  77;

$$

LSZ147-162-220700-
LAKE SUPERIOR

STATION/POSITION TIME  TEMP    WIND        PRES    WAVE
                       AIR SEA DIR/SP/G            HT/PER
                 (UTC) (F)     (DEG/KT/KT) (MB)    (FT/S)
W MID LAKE BUOY  0550   59 55  130/  8/  8 1012.5F   1/ 4
DEVILS ISLAND    0600   60      40/  6/  7 1011.9F
SAXON HARBOR     0530   62      CALM  /  8 1011.5F
$$

LMZ867-665-643>646-220700-
LAKE MICHIGAN

STATION/POSITION TIME  TEMP    WIND        PRES    WAVE
                       AIR SEA DIR/SP/G            HT/PER
                 (UTC)



USA.gov is the U.S. government's official web portal to all federal, state and local government web resources and services.